DELTA 1 DEB, 21444

Orbit data source: Space-Track

DELTA 1 DEB, 21444 is space debris in SSO originally from a launch on Thu, 12 Jun 1975 UTC launched from the Air Force Western Test Range (AFWTR). Debris objects in space refer to the collection of defunct objects orbiting the Earth. Examples of debris include non-operational satellites, rocket bodies, and fragments generated from explosions, collisions, or faulty payload assembly.

Loading next visibility...
Identifier
21444, 1975-052EC
Orbit
SSO
Country
Flag of USUS
Related business
Manufacturer
Unknown
Mission
Spacecraft
Bus & Motor
Unknown
Mass
Unknown
Launch date (UTC)
1975-06-12 (51 years ago)
Launch vehicle
Unknown
Launch site
Air Force Western Test Range (AFWTR)
Object type
Payload
Rocket body
Debris
Shape & HBR
Unknown shape, 0.1 m
Radar Cross Section
Small (<0.1 m²)

Expand to show TLE details & history
Last TLE update: 2 days ago

TLE from 2 days ago
0 DELTA 1 DEB
1 21444U 75052EC  25348.48645598  .00000526  00000-0  17124-2 0  9995
2 21444  99.6946 277.7766 0264821 112.9546 317.0439 12.94757520632980
Epoch: 2025-12-14T11:40Z
TLE epoch observation values (Epoch: 2025-12-14T11:40:29.796Z)
Latitude
66.03099°
Longitude
-3.22233°
Altitude
1,148.083 km
Speed
7.354 km/s
True Right ascension
17h 01m 12s
True Declination
65° 54' 35"
Sunlit
Object was in daylight at epoch
Visualization orbit readout
Latitude
Unknown
Longitude
Unknown
Altitude
Unknown
Speed
Unknown
Apparent Right ascension
Unknown
Apparent Declination
Unknown
Sunlit
N/A
Visualization observer readout
Local Sidereal Time
03:26:42
Azimuth
Unknown
Elevation
Unknown
Doppler factor
Unknown
Orbital elements
Apogee altitude
1,482.878 km
Perigee altitude
1,077.267 km
Semi-major axis
7,658.21 km
Eccentricity
0.02648
Inclination
99.6946°
RAAN
277.7766°
Arg. of periapsis
112.9546°
True anomaly
314.92519°
Mean anomaly
317.0439°
Eccentric anomaly
315.98969°
Mean motion
3.23856 °/min
Orbital period
111.16 mins
BSTAR
0.0017124
Loading maneuver chart data...
Computing Atmospheric mass density...
Loading historical data...
Loading historical data...
Loading historical data...
Loading historical data...
Loading historical data...
Loading historical data...
Loading historical data...

Documentation

Showing up to 5 results
|